﻿測定場所 (Monitoring sites),日付 (Measurement date),時間 (Measurement time),線量率 最大値 (max) μGy/h,線量率 最小値 (min) μGy/h,線量率 平均値 (average) μGy/h,
江戸川 (Edogawa),2020-12-20,23:01～24:00,0.0471,0.0418,0.0447,
江戸川 (Edogawa),2020-12-20,22:01～23:00,0.0485,0.0407,0.0446,
江戸川 (Edogawa),2020-12-20,21:01～22:00,0.0479,0.0421,0.0444,
江戸川 (Edogawa),2020-12-20,20:01～21:00,0.0475,0.0419,0.0440,
江戸川 (Edogawa),2020-12-20,19:01～20:00,0.0468,0.0413,0.0444,
江戸川 (Edogawa),2020-12-20,18:01～19:00,0.0467,0.0419,0.0445,
江戸川 (Edogawa),2020-12-20,17:01～18:00,0.0483,0.0415,0.0448,
江戸川 (Edogawa),2020-12-20,16:01～17:00,0.0476,0.0419,0.0448,
江戸川 (Edogawa),2020-12-20,15:01～16:00,0.0485,0.0410,0.0444,
江戸川 (Edogawa),2020-12-20,14:01～15:00,0.0476,0.0418,0.0446,
江戸川 (Edogawa),2020-12-20,13:01～14:00,0.0492,0.0412,0.0447,
江戸川 (Edogawa),2020-12-20,12:01～13:00,0.0495,0.0408,0.0445,
江戸川 (Edogawa),2020-12-20,11:01～12:00,0.0477,0.0415,0.0445,
江戸川 (Edogawa),2020-12-20,10:01～11:00,0.0479,0.0417,0.0448,
江戸川 (Edogawa),2020-12-20,09:01～10:00,0.0472,0.0414,0.0446,
江戸川 (Edogawa),2020-12-20,08:01～09:00,0.0477,0.0423,0.0449,
江戸川 (Edogawa),2020-12-20,07:01～08:00,0.0487,0.0417,0.0449,
江戸川 (Edogawa),2020-12-20,06:01～07:00,0.0486,0.0408,0.0450,
江戸川 (Edogawa),2020-12-20,05:01～06:00,0.0486,0.0423,0.0456,
江戸川 (Edogawa),2020-12-20,04:01～05:00,0.0488,0.0427,0.0454,
江戸川 (Edogawa),2020-12-20,03:01～04:00,0.0480,0.0433,0.0454,
江戸川 (Edogawa),2020-12-20,02:01～03:00,0.0485,0.0420,0.0451,
江戸川 (Edogawa),2020-12-20,01:01～02:00,0.0489,0.0414,0.0451,
江戸川 (Edogawa),2020-12-20,00:01～01:00,0.0479,0.0413,0.0450,
江戸川 (Edogawa),2020-12-19,23:01～24:00,0.0473,0.0419,0.0448,
江戸川 (Edogawa),2020-12-19,22:01～23:00,0.0486,0.0419,0.0450,
江戸川 (Edogawa),2020-12-19,21:01～22:00,0.0482,0.0422,0.0450,
江戸川 (Edogawa),2020-12-19,20:01～21:00,0.0493,0.0421,0.0452,
江戸川 (Edogawa),2020-12-19,19:01～20:00,0.0482,0.0419,0.0452,
江戸川 (Edogawa),2020-12-19,18:01～19:00,0.0485,0.0423,0.0454,
江戸川 (Edogawa),2020-12-19,17:01～18:00,0.0486,0.0424,0.0458,
江戸川 (Edogawa),2020-12-19,16:01～17:00,0.0487,0.0425,0.0459,
江戸川 (Edogawa),2020-12-19,15:01～16:00,0.0488,0.0418,0.0455,
江戸川 (Edogawa),2020-12-19,14:01～15:00,0.0478,0.0420,0.0450,
江戸川 (Edogawa),2020-12-19,13:01～14:00,0.0483,0.0418,0.0449,
江戸川 (Edogawa),2020-12-19,12:01～13:00,0.0479,0.0419,0.0451,
江戸川 (Edogawa),2020-12-19,11:01～12:00,0.0486,0.0419,0.0453,
江戸川 (Edogawa),2020-12-19,10:01～11:00,0.0481,0.0426,0.0452,
江戸川 (Edogawa),2020-12-19,09:01～10:00,0.0487,0.0431,0.0453,
江戸川 (Edogawa),2020-12-19,08:01～09:00,0.0489,0.0427,0.0457,
江戸川 (Edogawa),2020-12-19,07:01～08:00,0.0483,0.0420,0.0459,
江戸川 (Edogawa),2020-12-19,06:01～07:00,0.0498,0.0422,0.0460,
江戸川 (Edogawa),2020-12-19,05:01～06:00,0.0490,0.0429,0.0459,
江戸川 (Edogawa),2020-12-19,04:01～05:00,0.0486,0.0437,0.0460,
江戸川 (Edogawa),2020-12-19,03:01～04:00,0.0493,0.0435,0.0459,
江戸川 (Edogawa),2020-12-19,02:01～03:00,0.0485,0.0432,0.0457,
江戸川 (Edogawa),2020-12-19,01:01～02:00,0.0475,0.0435,0.0456,
江戸川 (Edogawa),2020-12-19,00:01～01:00,0.0493,0.0426,0.0457,
江戸川 (Edogawa),2020-12-18,23:01～24:00,0.0489,0.0426,0.0456,
江戸川 (Edogawa),2020-12-18,22:01～23:00,0.0490,0.0417,0.0452,
江戸川 (Edogawa),2020-12-18,21:01～22:00,0.0480,0.0425,0.0451,
江戸川 (Edogawa),2020-12-18,20:01～21:00,0.0478,0.0403,0.0447,
江戸川 (Edogawa),2020-12-18,19:01～20:00,0.0482,0.0420,0.0451,
江戸川 (Edogawa),2020-12-18,18:01～19:00,0.0483,0.0420,0.0454,
江戸川 (Edogawa),2020-12-18,17:01～18:00,0.0489,0.0427,0.0453,
江戸川 (Edogawa),2020-12-18,16:01～17:00,0.0485,0.0423,0.0457,
江戸川 (Edogawa),2020-12-18,15:01～16:00,0.0479,0.0424,0.0450,
江戸川 (Edogawa),2020-12-18,14:01～15:00,0.0488,0.0431,0.0453,
江戸川 (Edogawa),2020-12-18,13:01～14:00,0.0499,0.0427,0.0454,
江戸川 (Edogawa),2020-12-18,12:01～13:00,0.0505,0.0430,0.0462,
江戸川 (Edogawa),2020-12-18,11:01～12:00,0.0487,0.0431,0.0458,
江戸川 (Edogawa),2020-12-18,10:01～11:00,0.0494,0.0430,0.0465,
江戸川 (Edogawa),2020-12-18,09:01～10:00,0.0499,0.0423,0.0457,
江戸川 (Edogawa),2020-12-18,08:01～09:00,0.0486,0.0413,0.0459,
江戸川 (Edogawa),2020-12-18,07:01～08:00,0.0488,0.0421,0.0454,
江戸川 (Edogawa),2020-12-18,06:01～07:00,0.0494,0.0427,0.0455,
江戸川 (Edogawa),2020-12-18,05:01～06:00,0.0481,0.0426,0.0453,
江戸川 (Edogawa),2020-12-18,04:01～05:00,0.0479,0.0417,0.0448,
江戸川 (Edogawa),2020-12-18,03:01～04:00,0.0479,0.0421,0.0449,
江戸川 (Edogawa),2020-12-18,02:01～03:00,0.0472,0.0417,0.0446,
江戸川 (Edogawa),2020-12-18,01:01～02:00,0.0481,0.0422,0.0447,
江戸川 (Edogawa),2020-12-18,00:01～01:00,0.0477,0.0406,0.0447,
江戸川 (Edogawa),2020-12-17,23:01～24:00,0.0482,0.0412,0.0447,
江戸川 (Edogawa),2020-12-17,22:01～23:00,0.0474,0.0402,0.0443,
江戸川 (Edogawa),2020-12-17,21:01～22:00,0.0474,0.0410,0.0442,
江戸川 (Edogawa),2020-12-17,20:01～21:00,0.0473,0.0398,0.0443,
江戸川 (Edogawa),2020-12-17,19:01～20:00,0.0479,0.0410,0.0443,
江戸川 (Edogawa),2020-12-17,18:01～19:00,0.0477,0.0405,0.0444,
江戸川 (Edogawa),2020-12-17,17:01～18:00,0.0475,0.0408,0.0444,
江戸川 (Edogawa),2020-12-17,16:01～17:00,0.0483,0.0400,0.0440,
江戸川 (Edogawa),2020-12-17,15:01～16:00,0.0467,0.0387,0.0423,
江戸川 (Edogawa),2020-12-17,13:01～14:00,0.0479,0.0419,0.0443,
江戸川 (Edogawa),2020-12-17,12:01～13:00,0.0479,0.0419,0.0448,
江戸川 (Edogawa),2020-12-17,11:01～12:00,0.0481,0.0416,0.0447,
江戸川 (Edogawa),2020-12-17,10:01～11:00,0.0490,0.0415,0.0449,
江戸川 (Edogawa),2020-12-17,09:01～10:00,0.0471,0.0422,0.0443,
江戸川 (Edogawa),2020-12-17,08:01～09:00,0.0478,0.0413,0.0441,
江戸川 (Edogawa),2020-12-17,07:01～08:00,0.0477,0.0420,0.0445,
江戸川 (Edogawa),2020-12-17,06:01～07:00,0.0481,0.0424,0.0445,
江戸川 (Edogawa),2020-12-17,05:01～06:00,0.0480,0.0425,0.0450,
江戸川 (Edogawa),2020-12-17,04:01～05:00,0.0483,0.0413,0.0448,
江戸川 (Edogawa),2020-12-17,03:01～04:00,0.0477,0.0420,0.0447,
江戸川 (Edogawa),2020-12-17,02:01～03:00,0.0486,0.0417,0.0449,
江戸川 (Edogawa),2020-12-17,01:01～02:00,0.0479,0.0412,0.0445,
江戸川 (Edogawa),2020-12-17,00:01～01:00,0.0484,0.0421,0.0449,
江戸川 (Edogawa),2020-12-16,23:01～24:00,0.0479,0.0412,0.0446,
江戸川 (Edogawa),2020-12-16,22:01～23:00,0.0474,0.0415,0.0448,
江戸川 (Edogawa),2020-12-16,21:01～22:00,0.0488,0.0423,0.0450,
江戸川 (Edogawa),2020-12-16,20:01～21:00,0.0473,0.0418,0.0446,
江戸川 (Edogawa),2020-12-16,19:01～20:00,0.0492,0.0420,0.0449,
江戸川 (Edogawa),2020-12-16,18:01～19:00,0.0487,0.0411,0.0449,
江戸川 (Edogawa),2020-12-16,17:01～18:00,0.0485,0.0416,0.0449,
江戸川 (Edogawa),2020-12-16,16:01～17:00,0.0482,0.0414,0.0451,
江戸川 (Edogawa),2020-12-16,15:01～16:00,0.0484,0.0427,0.0453,
江戸川 (Edogawa),2020-12-16,14:01～15:00,0.0487,0.0422,0.0451,
江戸川 (Edogawa),2020-12-16,13:01～14:00,0.0492,0.0415,0.0450,
江戸川 (Edogawa),2020-12-16,12:01～13:00,0.0484,0.0428,0.0453,
江戸川 (Edogawa),2020-12-16,11:01～12:00,0.0484,0.0421,0.0454,
江戸川 (Edogawa),2020-12-16,10:01～11:00,0.0471,0.0422,0.0448,
江戸川 (Edogawa),2020-12-16,09:01～10:00,0.0497,0.0419,0.0448,
江戸川 (Edogawa),2020-12-16,08:01～09:00,0.0476,0.0413,0.0447,
江戸川 (Edogawa),2020-12-16,07:01～08:00,0.0486,0.0418,0.0446,
江戸川 (Edogawa),2020-12-16,06:01～07:00,0.0482,0.0409,0.0446,
江戸川 (Edogawa),2020-12-16,05:01～06:00,0.0483,0.0417,0.0449,
江戸川 (Edogawa),2020-12-16,04:01～05:00,0.0474,0.0420,0.0445,
江戸川 (Edogawa),2020-12-16,03:01～04:00,0.0480,0.0425,0.0446,
江戸川 (Edogawa),2020-12-16,02:01～03:00,0.0476,0.0406,0.0446,
江戸川 (Edogawa),2020-12-16,01:01～02:00,0.0470,0.0414,0.0447,
江戸川 (Edogawa),2020-12-16,00:01～01:00,0.0472,0.0427,0.0448,
江戸川 (Edogawa),2020-12-15,23:01～24:00,0.0485,0.0419,0.0445,
江戸川 (Edogawa),2020-12-15,22:01～23:00,0.0482,0.0416,0.0452,
江戸川 (Edogawa),2020-12-15,21:01～22:00,0.0476,0.0421,0.0453,
江戸川 (Edogawa),2020-12-15,20:01～21:00,0.0498,0.0423,0.0452,
江戸川 (Edogawa),2020-12-15,19:01～20:00,0.0471,0.0420,0.0450,
江戸川 (Edogawa),2020-12-15,18:01～19:00,0.0499,0.0417,0.0451,
江戸川 (Edogawa),2020-12-15,17:01～18:00,0.0487,0.0429,0.0451,
江戸川 (Edogawa),2020-12-15,16:01～17:00,0.0485,0.0418,0.0454,
江戸川 (Edogawa),2020-12-15,15:01～16:00,0.0477,0.0422,0.0450,
江戸川 (Edogawa),2020-12-15,14:01～15:00,0.0481,0.0428,0.0453,
江戸川 (Edogawa),2020-12-15,13:01～14:00,0.0494,0.0431,0.0457,
江戸川 (Edogawa),2020-12-15,12:01～13:00,0.0492,0.0429,0.0460,
江戸川 (Edogawa),2020-12-15,11:01～12:00,0.0495,0.0434,0.0456,
江戸川 (Edogawa),2020-12-15,10:01～11:00,0.0481,0.0422,0.0453,
江戸川 (Edogawa),2020-12-15,09:01～10:00,0.0493,0.0420,0.0454,
江戸川 (Edogawa),2020-12-15,08:01～09:00,0.0486,0.0424,0.0452,
江戸川 (Edogawa),2020-12-15,07:01～08:00,0.0480,0.0401,0.0450,
江戸川 (Edogawa),2020-12-15,06:01～07:00,0.0488,0.0412,0.0449,
江戸川 (Edogawa),2020-12-15,05:01～06:00,0.0483,0.0424,0.0446,
江戸川 (Edogawa),2020-12-15,04:01～05:00,0.0480,0.0423,0.0450,
江戸川 (Edogawa),2020-12-15,03:01～04:00,0.0480,0.0403,0.0449,
江戸川 (Edogawa),2020-12-15,02:01～03:00,0.0479,0.0416,0.0447,
江戸川 (Edogawa),2020-12-15,01:01～02:00,0.0492,0.0412,0.0450,
江戸川 (Edogawa),2020-12-15,00:01～01:00,0.0481,0.0416,0.0450,
江戸川 (Edogawa),2020-12-14,23:01～24:00,0.0476,0.0404,0.0451,
江戸川 (Edogawa),2020-12-14,22:01～23:00,0.0478,0.0425,0.0450,
江戸川 (Edogawa),2020-12-14,21:01～22:00,0.0494,0.0418,0.0453,
江戸川 (Edogawa),2020-12-14,20:01～21:00,0.0473,0.0410,0.0447,
江戸川 (Edogawa),2020-12-14,19:01～20:00,0.0476,0.0417,0.0449,
江戸川 (Edogawa),2020-12-14,18:01～19:00,0.0485,0.0419,0.0453,
江戸川 (Edogawa),2020-12-14,17:01～18:00,0.0485,0.0413,0.0455,
江戸川 (Edogawa),2020-12-14,16:01～17:00,0.0531,0.0444,0.0488,
江戸川 (Edogawa),2020-12-14,15:01～16:00,0.0543,0.0474,0.0514,
江戸川 (Edogawa),2020-12-14,14:01～15:00,0.0522,0.0424,0.0469,
江戸川 (Edogawa),2020-12-14,13:01～14:00,0.0493,0.0423,0.0456,
江戸川 (Edogawa),2020-12-14,12:01～13:00,0.0487,0.0419,0.0457,
江戸川 (Edogawa),2020-12-14,11:01～12:00,0.0503,0.0439,0.0461,
江戸川 (Edogawa),2020-12-14,10:01～11:00,0.0491,0.0415,0.0459,
江戸川 (Edogawa),2020-12-14,09:01～10:00,0.0478,0.0426,0.0451,
江戸川 (Edogawa),2020-12-14,08:01～09:00,0.0488,0.0422,0.0455,
江戸川 (Edogawa),2020-12-14,07:01～08:00,0.0486,0.0433,0.0453,
江戸川 (Edogawa),2020-12-14,06:01～07:00,0.0484,0.0419,0.0451,
江戸川 (Edogawa),2020-12-14,05:01～06:00,0.0497,0.0421,0.0456,
江戸川 (Edogawa),2020-12-14,04:01～05:00,0.0484,0.0423,0.0451,
江戸川 (Edogawa),2020-12-14,03:01～04:00,0.0483,0.0419,0.0447,
江戸川 (Edogawa),2020-12-14,02:01～03:00,0.0488,0.0421,0.0450,
江戸川 (Edogawa),2020-12-14,01:01～02:00,0.0481,0.0417,0.0454,
江戸川 (Edogawa),2020-12-14,00:01～01:00,0.0477,0.0419,0.0447,
